Weather History for Lufkin, TX

Change the Weather History Date:

Wednesday, May 2, 2012

  Actual Average Record
Temperature  
Mean Temperature 79 °F 71 °F  
Max Temperature 89 °F 82 °F 93 °F (1943)
Min Temperature 68 °F 60 °F 39 °F (1909)
Degree Days  
Heating Degree Days 0 0  
Month to date heating degree days 0 1  
Since 1 July heating degree days 1414 1914  
Cooling Degree Days 14 6  
Month to date cooling degree days 28 12  
Year to date cooling degree days 427 188  
Growing Degree Days 28 (Base 50)    
Moisture  
Dew Point 67 °F    
Average Humidity 72    
Maximum Humidity 97    
Minimum Humidity 46    
Precipitation  
Precipitation 0.00 in 0.13 in 4.67 in (1916)
Month to date precipitation 0.00 0.27  
Year to date precipitation 19.44 15.15  
Snow  
Snow 0.00 in - - ()
Month to date snowfall 0.0  
Since 1 July snowfall 0.0  
Snow Depth 0.00 in    
Sea Level Pressure  
Sea Level Pressure 29.91 in    
Wind  
Wind Speed 3 mph (SSE)    
Max Wind Speed 10 mph    
Max Gust Speed 13 mph    
Visibility 9 miles    
Events      
T = Trace of Precipitation, MM = Missing Value Source: NWS Daily Summary

Daily Weather History Graph

Daily Weather History Graph

Search for Another Location

Airport:

Trip Planner

Search our weather history database for the weather conditions in past years. The results will help you decide how hot, cold, wet, or windy it might be!

Date:

Astronomy

May. 02, 2012 Rise Set
Actual Time 6:32 AM CDT 7:59 PM CDT
Civil Twilight 6:07 AM CDT 8:25 PM CDT
Nautical Twilight 5:36 AM CDT 8:56 PM CDT
Astronomical Twilight 5:04 AM CDT 9:28 PM CDT
Moon 4:25 PM CDT (5/2) 3:48 AM CDT (5/2)
Length of Visible Light 14h 18m
Length of Day
13h 26m
Waxing Gibbous, 83% of the Moon is Illuminated
May 2
Waxing Gibbous
May 5
Full
May 12
Last Quarter
May 20
New
May 28
First Quarter

Hourly Weather History & Observations

Time (CDT) Temp. Heat Index Dew Point Humidity Pressure Visibility Wind Dir Wind Speed Gust Speed Precip Events Conditions
12:53 AM 70.0 °F - 66.0 °F 87% 29.92 in 10.0 mi SSE 4.6 mph - N/A   Clear
1:53 AM 69.1 °F - 66.0 °F 90% 29.90 in 9.0 mi East 3.5 mph - N/A   Clear
2:51 AM 68.0 °F - 64.4 °F 88% 29.90 in 9.0 mi SE 3.5 mph - N/A   Partly Cloudy
2:53 AM 68.0 °F - 64.9 °F 90% 29.89 in 8.0 mi Calm Calm - N/A   Scattered Clouds
3:04 AM 69.8 °F - 66.2 °F 88% 29.90 in 8.0 mi SSE 3.5 mph - N/A   Mostly Cloudy
3:53 AM 70.0 °F - 66.9 °F 90% 29.89 in 7.0 mi SSE 5.8 mph - N/A   Overcast
4:53 AM 71.1 °F - 68.0 °F 90% 29.89 in 8.0 mi SSE 3.5 mph - N/A   Overcast
5:53 AM 70.0 °F - 66.9 °F 90% 29.89 in 7.0 mi SE 3.5 mph - N/A   Overcast
6:40 AM 69.8 °F - 66.2 °F 88% 29.91 in 4.0 mi Calm Calm - N/A   Overcast
6:53 AM 70.0 °F - 68.0 °F 93% 29.90 in 4.0 mi ESE 3.5 mph - N/A   Overcast
7:04 AM 69.8 °F - 68.0 °F 94% 29.92 in 4.0 mi Calm Calm - N/A   Mostly Cloudy
7:14 AM 71.6 °F - 68.0 °F 88% 29.93 in 5.0 mi Calm Calm - N/A   Overcast
7:53 AM 72.0 °F - 69.1 °F 91% 29.92 in 6.0 mi SE 4.6 mph - N/A   Mostly Cloudy
8:04 AM 71.6 °F - 69.8 °F 94% 29.93 in 6.0 mi ESE 4.6 mph - N/A   Overcast
8:17 AM 73.4 °F - 69.8 °F 88% 29.94 in 8.0 mi SE 4.6 mph - N/A   Overcast
8:37 AM 73.4 °F - 68.0 °F 83% 29.94 in 10.0 mi South 4.6 mph - N/A   Mostly Cloudy
8:53 AM 75.0 °F - 68.0 °F 79% 29.94 in 10.0 mi South 9.2 mph - N/A   Scattered Clouds
8:56 AM 75.2 °F - 68.0 °F 78% 29.95 in 10.0 mi South 5.8 mph - N/A   Mostly Cloudy
9:23 AM 75.2 °F - 68.0 °F 78% 29.95 in 10.0 mi SE 8.1 mph - N/A   Overcast
9:51 AM 75.2 °F - 68.0 °F 78% 29.95 in 10.0 mi SSE 5.8 mph - N/A   Scattered Clouds
9:53 AM 75.9 °F - 68.0 °F 76% 29.94 in 10.0 mi South 4.6 mph - N/A   Partly Cloudy
10:35 AM 80.6 °F 83.2 °F 68.0 °F 65% 29.95 in 10.0 mi SSE 8.1 mph - N/A   Mostly Cloudy
10:53 AM 81.0 °F 83.3 °F 66.9 °F 62% 29.94 in 10.0 mi SW 4.6 mph - N/A   Overcast
11:24 AM 82.4 °F 84.6 °F 66.2 °F 58% 29.95 in 10.0 mi SW 5.8 mph - N/A   Mostly Cloudy
11:53 AM 82.9 °F 85.0 °F 66.0 °F 56% 29.94 in 10.0 mi South 6.9 mph - N/A   Mostly Cloudy
12:53 PM 84.9 °F 87.1 °F 66.0 °F 53% 29.92 in 10.0 mi WSW 5.8 mph - N/A   Scattered Clouds
1:53 PM 84.9 °F 86.6 °F 64.9 °F 51% 29.91 in 10.0 mi SSE 3.5 mph - N/A   Scattered Clouds
2:53 PM 87.1 °F 88.3 °F 64.0 °F 46% 29.88 in 10.0 mi Variable 4.6 mph - N/A   Partly Cloudy
3:53 PM 87.1 °F 88.9 °F 64.9 °F 48% 29.86 in 10.0 mi Calm Calm - N/A   Scattered Clouds
4:53 PM 88.0 °F 89.3 °F 64.0 °F 45% 29.84 in 10.0 mi South 4.6 mph - N/A   Clear
5:53 PM 88.0 °F 89.3 °F 64.0 °F 45% 29.84 in 10.0 mi Calm Calm - N/A   Clear
6:53 PM 87.1 °F 88.9 °F 64.9 °F 48% 29.84 in 10.0 mi Calm Calm - N/A   Clear
7:53 PM 82.0 °F 84.9 °F 68.0 °F 62% 29.85 in 10.0 mi Calm Calm - N/A   Clear
8:53 PM 77.0 °F - 68.0 °F 74% 29.86 in 10.0 mi Calm Calm - N/A   Clear
9:53 PM 75.9 °F - 68.0 °F 76% 29.88 in 10.0 mi Calm Calm - N/A   Clear
10:53 PM 73.9 °F - 68.0 °F 82% 29.89 in 10.0 mi Calm Calm - N/A   Clear
11:53 PM 73.9 °F - 68.0 °F 82% 29.89 in 10.0 mi Calm Calm - N/A   Clear